Location: Goheenville
(40.9070°N, 79.3720°W)
Time: 06:41:57
(UTC-04:00)

Meteor 2-10 Rocket - Visible Passes

Search period start: 23 May 2017 00:00
Search period end: 02 June 2017 00:00
Orbit: 733 x 885 km, 81.2° (Epoch: 22 May)

Date Brightness Start Highest point End Pass type
(mag) Time Alt. Az. Time Alt. Az. Time Alt. Az.
23 May 6.2 04:08:09 10° NNE 04:11:33 18° ENE 04:14:55 10° ESE visible
24 May 6.4 03:44:53 10° NE 03:47:02 13° ENE 03:49:11 10° E visible
25 May 3.6 05:00:21 10° N 05:05:23 80° E 05:10:25 10° SSE visible
26 May 4.2 04:36:08 10° N 04:41:04 55° ENE 04:46:00 10° SSE visible
27 May 4.9 04:12:01 10° N 04:16:42 38° ENE 04:21:22 10° SE visible
28 May 5.5 03:48:02 10° NNE 03:52:17 27° ENE 03:56:33 10° SE visible
29 May 5.9 03:24:14 10° NNE 03:27:50 19° ENE 03:31:27 10° ESE visible
29 May 3.8 05:05:21 10° NNW 05:10:07 45° W 05:14:55 10° SSW visible
30 May 6.2 03:00:47 10° NE 03:03:20 14° ENE 03:05:53 10° E visible
30 May 3.4 04:40:55 10° NNW 04:45:53 66° W 04:50:55 10° S visible
31 May 3.4 04:16:34 10° N 04:21:36 87° ENE 04:26:43 10° S visible
01 Jun 3.9 03:52:19 10° N 03:57:18 60° ENE 04:02:20 10° SSE visible
